DW7214 Weather Reports


Display with metric or nautical units.
time (UTC)temp
F
wind
direction
speed
MPH
gust
MPH
rain 1hr
in
rain 24hr
in
rain mn
in
humidity
%
barometer
mb
20260502193024 61 92 1.0 5.0 0.00 0.00 0.00 70 1016.1
20260502191514 59 76 1.0 4.0 0.00 0.00 0.00 71 1016.2
20260502190026 58 58 3.0 5.0 0.00 0.00 0.00 73 1016.4
20260502184517 57 307 0.0 2.0 0.00 0.00 0.00 73 1016.4
20260502183022 57 291 1.0 6.0 0.00 0.00 0.00 74 1016.3
20260502181525 57 60 2.0 13.0 0.00 0.00 0.00 74 1016.0
20260502163019 54 338 1.0 2.0 0.00 0.00 0.00 77 1017.2
20260502161519 52 188 1.0 2.0 0.00 0.00 0.00 81 1017.3
20260502151521 49 162 0.0 2.0 0.00 0.00 0.00 89 1017.4
20260502123012 46 225 0.0 1.0 0.00 0.00 0.00 92 1017.1
20260502121521 46 153 0.0 2.0 0.00 0.00 0.00 91 1017.2
20260502114525 47 106 0.0 2.0 0.00 0.00 0.00 91 1017.0
20260502113025 47 134 0.0 2.0 0.00 0.00 0.00 91 1017.1
20260502111512 47 87 0.0 2.0 0.00 0.00 0.00 91 1016.7
20260502110018 47 52 0.0 2.0 0.00 0.00 0.00 91 1016.7
20260502104537 47 95 0.0 2.0 0.00 0.00 0.00 92 1016.8
20260502103023 47 326 0.0 2.0 0.00 0.00 0.00 92 1016.3
20260502101525 48 130 0.0 2.0 0.00 0.00 0.00 90 1016.7
20260502071525 51 69 0.0 2.0 0.00 0.00 0.00 86 1017.7
20260502070028 51 155 0.0 2.0 0.00 0.00 0.00 85 1017.7
20260502064531 51 175 1.0 3.0 0.00 0.00 0.00 85 1017.7
20260502063020 52 130 1.0 3.0 0.00 0.00 0.00 85 1017.7
20260502061504 52 52 0.0 2.0 0.00 0.00 0.00 85 1017.6
20260502060010 52 58 0.0 2.0 0.00 0.00 0.00 84 1017.5
20260502054514 53 52 1.0 2.0 0.00 0.00 0.00 84 1017.4
20260502053017 53 48 1.0 3.0 0.00 0.00 0.00 83 1017.2
20260502051522 53 142 0.0 2.0 0.00 0.00 0.00 83 1017.1
20260502050005 53 111 1.0 2.0 0.00 0.00 0.00 84 1017.1
20260502044509 53 57 0.0 2.0 0.00 0.00 0.00 83 1016.9
20260502043018 54 12 0.0 2.0 0.00 0.00 0.00 82 1016.9
20260502041521 55 50 0.0 2.0 0.00 0.00 0.00 81 1016.7
20260502040025 56 200 1.0 7.0 0.00 0.00 0.00 79 1016.7
20260502034508 57 115 1.0 4.0 0.00 0.00 0.00 78 1016.5
20260502033015 57 87 2.0 4.0 0.00 0.00 0.00 77 1016.2
20260502031518 58 130 4.0 8.0 0.00 0.00 0.00 76 1016.0
20260502030021 59 119 2.0 4.0 0.00 0.00 0.00 73 1015.8
20260502024525 61 62 0.0 4.0 0.00 0.00 0.00 72 1015.5
20260502023009 62 94 2.0 4.0 0.00 0.00 0.00 70 1015.4
20260502021516 64 5 0.0 2.0 0.00 0.00 0.00 69 1015.4
20260502020022 65 105 1.0 4.0 0.00 0.00 0.00 65 1015.3
20260502014523 67 73 1.0 4.0 0.00 0.00 0.00 63 1015.2
20260502013008 69 122 1.0 2.0 0.00 0.00 0.00 63 1015.0
20260502011534 68 65 2.0 6.0 0.00 0.00 0.00 62 1015.0
20260502010019 69 130 3.0 7.0 0.00 0.00 0.00 61 1015.0
20260502004522 70 146 3.0 7.0 0.00 0.00 0.00 59 1015.0
20260502003027 72 102 0.0 2.0 0.00 0.00 0.00 59 1015.0
20260502001514 73 38 1.0 7.0 0.00 0.00 0.00 57 1014.9
20260502000016 73 104 1.0 7.0 0.00 0.00 0.00 54 1014.8
20260501234524 73 108 2.0 6.0 0.00 0.00 0.00 55 1014.9
20260501233026 73 109 3.0 8.0 0.00 0.00 0.00 51 1015.0
20260501231537 73 101 1.0 7.0 0.00 0.00 0.00 51 1015.2
20260501230014 73 103 3.0 7.0 0.00 0.00 0.00 52 1015.4
20260501224518 73 132 1.0 5.0 0.00 0.00 0.00 53 1015.5
20260501223023 72 173 2.0 5.0 0.00 0.00 0.00 58 1015.7
20260501221524 72 130 2.0 7.0 0.00 0.00 0.00 58 1015.8
20260501220013 72 74 2.0 7.0 0.00 0.00 0.00 57 1015.9
20260501214518 72 78 2.0 5.0 0.00 0.00 0.00 57 1016.0
20260501213029 71 182 1.0 6.0 0.00 0.00 0.00 57 1016.1
20260501211504 71 65 1.0 5.0 0.00 0.00 0.00 56 1016.2
20260501210012 70 36 1.0 6.0 0.00 0.00 0.00 59 1016.1
20260501204516 70 84 2.0 5.0 0.00 0.00 0.00 59 1016.4
20260501203019 69 186 1.0 6.0 0.00 0.00 0.00 59 1016.7
20260501201524 68 97 4.0 7.0 0.00 0.00 0.00 62 1016.9
20260501200008 67 156 2.0 9.0 0.00 0.00 0.00 63 1017.0
20260501194517 67 19 1.0 6.0 0.00 0.00 0.00 64 1017.2